Location: ???????
(55.4362°N, 38.1183°E)
Time: 07:35:37
(UTC+00:00)

Nauka - Pass Details

Date: 04 October 2021
Orbit: 417 x 423 km, 51.6° (Epoch: 24 October)

Event Time Altitude Azimuth Distance (km) Brightness Sun altitude
Rises 15:58:41 0° 274° (W) 2,367 ? -9.8°
Reaches altitude 10° 16:01:24 10° 250° (WSW) 1,500 ? -10.2°
Maximum altitude 16:03:25 15° 213° (SSW) 1,223 ? -10.5°
Drops below altitude 10° 16:05:27 10° 176° (S) 1,497 ? -10.8°
Enters shadow 16:07:28 - 156° (SSE) 2,115 ? -11.1°
